Location: Bernadets
(43.3537°N, 0.3167°E)
Time: 01:12:11
(UTC+00:00)

Cosmos 2333 Rocket - Pass Details

Date: 24 October 2021
Orbit: 837 x 865 km, 70.8° (Epoch: 06 December)

Event Time Altitude Azimuth Distance (km) Brightness Sun altitude
Rises 18:19:27 0° 169° (S) 3,380 5.3 -14.8°
Reaches altitude 10° 18:22:14 10° 157° (SSE) 2,453 4.4 -15.3°
Maximum altitude 18:26:49 26° 102° (ESE) 1,594 3.1 -16.2°
Enters shadow 18:27:31 26° 91° (E) 1,621 3.1 -16.3°
